Location: Unspecified
(0.0000°N, 0.0000°E)
Time: 13:16:58
(UTC+00:00)

UWE-3 - Visible Passes

Search period start: 24 August 2019 00:00
Search period end: 03 September 2019 00:00
Orbit: 586 x 683 km, 97.6° (Epoch: 23 August)

Date Brightness Start Highest point End Pass type
(mag) Time Alt. Az. Time Alt. Az. Time Alt. Az.
25 Aug ? 04:47:03 10° ENE 04:49:19 14° ESE 04:51:35 10° SE visible
25 Aug ? 18:33:18 10° SW 18:36:14 17° WSW 18:39:10 10° WNW visible
26 Aug ? 05:07:20 10° NE 05:10:56 29° E 05:14:33 10° SSE visible
27 Aug ? 05:28:28 10° NNE 05:32:34 64° E 05:36:39 10° S visible
29 Aug ? 04:38:55 10° E 04:39:39 10° ESE 04:40:23 10° ESE visible
29 Aug ? 18:23:05 10° SSW 18:26:38 22° WSW 18:30:12 10° NW visible
30 Aug ? 04:58:03 10° NE 05:01:15 22° ESE 05:04:27 10° SSE visible
30 Aug ? 18:47:00 10° WSW 18:48:15 11° WSW 18:49:31 10° W visible
31 Aug ? 05:18:55 10° NNE 05:22:52 46° ESE 05:26:50 10° S visible
